Location: Mahannah Oil Field
(37.4664°N, 96.6003°W)
Time: 02:10:17
(UTC+00:00)

Tiros 1 despin weight - Pass Details

Date: 31 January 2021
Orbit: 593 x 642 km, 48.2° (Epoch: 25 February)

Event Time Altitude Azimuth Distance (km) Brightness Sun altitude
Rises 18:29:17 0° 256° (WSW) 2,919 ? 35.3°
Reaches altitude 10° 18:31:44 10° 263° (W) 2,006 ? 35.3°
Maximum altitude 18:36:07 42° 335° (NNW) 892 ? 35.4°
Drops below altitude 10° 18:40:28 10° 47° (NE) 1,983 ? 35.4°
Sets 18:42:52 0° 54° (NE) 2,882 ? 35.4°
